www.pogodaiklimat.ru
ПОГОДА в Месе
Время
и дата
22:54 23.06
23:54 23.06
00:54 24.06
01:54 24.06
02:54 24.06
03:54 24.06
04:54 24.06
05:54 24.06
06:54 24.06
07:54 24.06
08:54 24.06
09:54 24.06
10:54 24.06
11:54 24.06
12:54 24.06
13:54 24.06
14:54 24.06
15:54 24.06
16:54 24.06
17:54 24.06
18:54 24.06
19:54 24.06
20:54 24.06
21:54 24.06
22:54 24.06
23:54 24.06
00:54 25.06
01:54 25.06
02:54 25.06
03:54 25.06
04:54 25.06
05:54 25.06
06:54 25.06
07:54 25.06
08:54 25.06
09:54 25.06
10:54 25.06
11:54 25.06
12:54 25.06
13:54 25.06
14:54 25.06
15:54 25.06
16:54 25.06
17:11 25.06
17:54 25.06
18:54 25.06
19:54 25.06
20:54 25.06
Ветер
(напр.,м/с)
Видим. Явления Облачность Т
(С)
Тd
(С)
f
(%)
Тe
(С)
Тes
(С)
Комфортность P
(гПа)
Po
(гПа)
Тmin
(С)
Tmax
(С)
R
(мм)
R24
(мм)
S
(см)
СВ 2 16 км 5/0 3300 м
[Ac]
+32.8 +11.1 27 +33 +33 жарко 1007.6 960.6 +30.6 +36.1
В 2 16 км 8/0 3300 м
[Ac]
+32.8 +11.7 28 +33 +33 жарко 1007.4 960.6
В 2 16 км ясно +31.7 +12.2 30 +32 +32 жарко 960.6
штиль 0 16 км ясно +30.6 +12.8 34 +32 +32 жарко 1007.5 960.6
Ю 1 16 км ясно +30.6 +12.8 34 +32 +32 жарко 1007.7 960.6
С 1 16 км ясно +28.9 +13.9 40 +31 +31 жарко 1008.1 960.9
С 1 16 км 2/0 3000 м
[Ac]
+30.6 +12.8 34 +32 +32 жарко 1009.3 962.2 +28.9 +33.3
СВ 3
{5}
16 км 8/0 3000 м
[Ac]
+29.4 +13.3 37 +31 +31 жарко 1010.6 963.2
СВ 3
{7}
16 км ясно +30.6 +11.7 31 +31 +31 жарко 1009.8 962.5
С 2 16 км ясно +31.7 +11.1 28 +32 +33 жарко 1010.2 962.8
СВ 2 16 км ясно +32.8 +12.2 29 +33 +37 жарко 1010.1 962.8
С 2 16 км ясно +34.4 +12.2 26 +34 +42 очень
жарко
1009.4 962.2
нст 1 16 км ясно +36.7 +11.7 22 +36 +51 опасность
солнечного
удара
1008.9 961.9 +29.4 +36.7
ЮЗ 2 16 км ясно +37.8 +11.1 20 +37 +50 очень
жарко
1008.4 961.2
16 км ясно +38.9 +11.7 20 +38 +67 опасность
солнечного
удара
1007.8 960.9
З 2
{3}
16 км ясно +38.9 +11.1 19 +38 +52 опасность
солнечного
удара
1007.0 959.9
З 2 16 км ясно +38.9 +11.7 20 +38 +51 опасность
солнечного
удара
1005.9 959.0
ЮЗ 2
{4}
16 км ясно +39.4 +11.7 19 +39 +46 очень
жарко
1004.8 958.0
З 1 16 км ясно +39.4 +11.1 18 +38 +47 очень
жарко
1004.0 957.4 +36.1 +40.6
З 2 16 км ясно +40.0 +11.1 18 +39 +42 очень
жарко
1004.2 957.4
СЗ 2 16 км ясно +39.4 +11.1 18 +38 +40 очень
жарко
1004.3 957.4
С 2 16 км ясно +37.2 +8.9 18 +35 +36 очень
жарко
1005.0 958.0
СВ 1 16 км ясно +35.0 +10.0 22 +34 +34 очень
жарко
1005.7 958.7
С 2 16 км ясно +36.1 +8.9 19 +34 +34 очень
жарко
1006.6 959.6
нст 1 16 км ясно +34.4 +9.4 22 +33 +33 жарко 1007.5 960.6 +34.4 +40.6
ЮВ 2 16 км слабый дождь 8/0 3000 м
[Ac]
+30.6 +15.0 39 +33 +33 душно 1008.4 961.2
Ю 4
{5}
16 км 10/0 3000 м
[Ac]
+30.0 +15.6 42 +33 +33 душно 1009.6 962.5
Ю 1
{4}
16 км слабый дождь 5/2 1800 м
[Ac]
+26.1 +18.3 62 +31 +31 очень
душно
1009.7 962.5 1.3
СВ 1 16 км ясно +27.2 +17.2 54 +31 +31 душно 1010.0 962.8
ЮЗ 2 16 км слабый дождь 5/5 1200 м
[Ac]
+27.2 +18.3 58 +32 +32 очень
душно
1009.3 962.2
З 1 16 км ясно +27.8 +16.7 51 +31 +31 душно 1008.7 961.6 +26.1 +34.4 1.3 1.3
СВ 1 16 км ясно +27.2 +17.2 54 +31 +31 душно 1010.0 962.8
ЮВ 1 16 км ясно +27.2 +17.8 56 +31 +32 душно 1010.5 963.2
СВ 1 16 км ясно +30.0 +16.1 43 +33 +35 душно 1010.7 963.5
СВ 1 16 км ясно +32.2 +15.0 35 +34 +39 душно 1010.9 963.5
штиль 0 16 км ясно +32.8 +14.4 33 +34 +49 очень
жарко
1010.8 963.5
штиль 0 16 км ясно +35.0 +12.8 26 +35 +56 опасность
солнечного
удара
1010.7 963.5 +26.1 +35.0
Ю 2 16 км ясно +35.6 +13.9 27 +36 +49 очень
жарко
1010.3 963.2
Ю 2 16 км ясно +37.2 +13.9 25 +38 +52 опасность
солнечного
удара
1009.4 962.2
нст 1 16 км ясно +37.2 +13.3 24 +37 +59 опасность
солнечного
удара
1008.6 961.2
штиль 0 16 км ясно +37.8 +12.2 22 +37 +63 опасность
солнечного
удара
1007.6 960.6
З 1 16 км ясно +38.9 +11.1 19 +38 +50 очень
жарко
1006.8 959.6
С 4
{7}
16 км ясно +39.4 +10.6 18 +38 +39 очень
жарко
1007.3 960.3 +35.0 +40.0
С 5
{9}
16 км ясно +36.1 +11.7 23 +36 +36 очень
жарко
960.3
СВ 4
{8}
16 км ясно +37.2 +9.4 19 +36 +36 очень
жарко
1007.6 960.3
СВ 4
{6}
16 км ясно +36.7 +9.4 19 +35 +36 очень
жарко
1007.3 960.3
С 2 16 км ясно +35.6 +11.1 23 +35 +35 очень
жарко
1007.8 960.6
З 3 16 км ясно +34.4 +10.6 23 +34 +34 очень
жарко
1009.3 962.2
Местоположение метеостанции Falcon Field Airport: широта 33.4667 долгота -111.7333 высота над уровнем моря 424 м.
В архиве по умолчанию представлена погода в Месе за последние 1-2 суток. Обновление информации о фактической погоде в базе происходит ежечасно! Архивные данные за месяц целиком и за предыдущие месяцы Вы можете получить, выбрав интересующий диапазон дат из раскрывающегося списка и нажав кнопку "Ввод!".
Внимание! Архив погоды МЕТАР в базе сайта по станциям, не включенным в климатический монитор, хранится не более 60 дней. Нет смысла пытаться выбрать более раннюю дату.
*Определитесь, кто Вы:
Внимание! Время в таблицах - местное (без учета летнего времени). Для получения всемирного времени необходимо вычесть поправку, которая равна -7 ч.
Смотрите также архив погоды в соседних городах и на ближайших метеорологических станциях:
Партнеры нашего сайта:      
Пояснения к столбцам:
  • Ветер - указаны скорость ветра в м/с - средняя за 10 мин, порывы в срок и между сроками (в фигурных скобках) и направление, откуда дует ветер: С - северный,
  • СВ - северо-восточный, В - восточный, ЮВ - юго-восточный, Ю - южный, ЮЗ - юго-западный, З - западный, СЗ - северо-западный.
  • Видимость - горизонтальная дальность видимости в метрах или километрах. При видимости от 1 до 10 км при отсутствии осадков обычно наблюдается дымка, при ухудшении видимости до 1 км и менее - туман. В сухую погоду видимость может ухудшаться дымом, пылью или мглою.
  • Явления - указаны атмосферные явления, наблюдавшиеся в срок или в последний час перед сроком; фигурными скобками обозначены явления, наблюдавшиеся между сроками (за 1-3 часа до срока); квадратными скобками обозначены град или гололедные отложения с указанием их диаметра в мм.
  • Облачность - указаны через наклонную черту общая и нижняя облачность в баллах и высота нижней границы облаков в метрах; квадратными скобками обозначены формы облаков: Ci - перистые, Cs - перисто-слоистые, Cc - перисто-кучевые, Ac - высококучевые, As - высокослоистые, Sc - слоисто-кучевые, Ns - слоисто-дождевые, Cu - кучевые, Cb - кучево-дождевые. Подробнее классификацию облаков см. в Атласе облаков (PDF).
  • T - Температура воздуха - температура, измеренная на высоте 2 м над землей.
  • Td - Температура точки росы - температура, при понижении до которой содержащийся в воздухе водяной пар достигнет насыщения.
  • f - Относительная влажность воздуха - влажноcть воздуха, измеренная на высоте 2 м над землей.
  • Te - Эффективная температура - температура, которую ощущает одетый по сезону человек в тени. Характеристика душности погоды. При расчете учитывается влияние влажности воздуха и скорости ветра на теплоощущения человека.
  • Tes - Эффективная температура на солнце - температура, которую ощущает человек, с поправкой на солнечный нагрев. Характеристика знойности погоды. Зависит от высоты солнца над горизонтом, облачности и скорости ветра. Ночью, в пасмурную погоду, а также при ветре 12 м/с и более поправка равна нулю.
  • P - Атмосферное давление - приведенное к уровню моря атмосферное давление.
  • Po - Атмосферное давление - измеренное на уровне метеостанции атмосферное давление.
  • Tmin - Минимальная температура - минимум температуры воздуха на высоте 2 м над землей.
  • Tmax - Максимальная температура - максимум температуры воздуха на высоте 2 м над землей.
  • R - Количество осадков - Количество выпавших осадков за период времени, мм. При наведении курсора мыши на число - период времени, за который выпало указанное количество осадков.
  • R24 - Количество осадков - Количество выпавших осадков за 24 часа, мм.
  • S - Снежный покров - Высота снежного покрова, см. При наведении курсора мыши на число - состояние снежного покрова и степень покрытия местности в баллах.